Weather in Sauzbash

Russia / Republic of Bashkortostan     55°59′01″N   53°55′23″E
temp.,
°C
wind,
m/s
gust,
m/s
humid.,
%
clouds,
%
prec.,
mm/h
press.,
hPa
HPBL,
m
28 february, sun
sun2823:00−11e61193100 1.8 1001301
02:00−11ene5994100 0.2 1001287
05:00−13ne599494 0.3 1001253
08:00−15nne599479 0.1 1002265
11:00−13nne599282 0.1 1003393
14:00−11nne4690100 0.1 1005499
17:00−10n5890100 0.1 1006552
20:00−13n499298 0.1 1009271
1 march, mon
mon123:00−14n489396 0.1 1011249
02:00−15n479593 0.1 1012206
05:00−18nnw469688 0.1 1014131
08:00−20n469766 0.0 101687
11:00−18nnw359457 0.0 1018183
14:00−14nw338939 0.0 1018335
17:00−14nw359161 0.0 1019261
20:00−18wsw229633 0.0 101820
2 march, tue
tue223:00−19sw349942 0.0 101839
02:00−21ssw349969 0.0 101678
05:00−19s599582 0.0 1014236
08:00−16s61195100 0.1 1010344
11:00−12s61195100 1.1 1007513
14:00−10ssw71194100 1.3 1003590
17:00−7ssw71195100 2.3 1001591
20:00−6s61195100 1.5 999486
3 march, wed
wed323:00−4ssw51096100 2.1 998308
02:00−2sw499798 0.3 997337
05:00−3w589699 0.4 998286
08:00−8wnw359586 0.0 998109
11:00−5w379582 0.1 1000291
14:00−3wnw469197 0.1 1000520
17:00−3wnw578899 0.3 1001833
20:00−7wnw4992100 0.1 1002314
4 march, thu
thu423:00−11wnw349289 0.1 100559
02:00−12w349654 0.0 100575
05:00−14wsw349648 0.0 100567
08:00−13wsw379698 0.0 1005154
11:00−9sw589498 0.2 1004331
14:00−7ssw6993100 0.1 1003507
17:00−5ssw71195100 0.6 1000669
20:00−5ssw81595100 1.4 996897